Preview of NWS' New Version of Forecast
This preview is not operational and should not be used for support decisions.

Regional Weather Roundup (RWR)

Issued by National Weather Service (NWS)

                            
000
ASUS44 KMEG 180900
RWRTN 
TENNESSEE HOURLY STATE WEATHER ROUNDUP
NATIONAL WEATHER SERVICE MEMPHIS TN
300 AM CST MON FEB 18 2019

TNZ002-004-019-021-049-052-054-088>092-181000-
WEST TENNESSEE
  
CITY           SKY/WX    TMP DP  RH WIND       PRES   REMARKS
MEMPHIS INTL   CLOUDY    34  25  69 N14       30.19R WCI  25          
NWS MEMPHIS      N/A     33 N/A N/A MISG        N/A                   
JACKSON        FAIR      34  26  72 NW12      30.17R WCI  25          
DYERSBURG      FAIR      33  22  63 NW8       30.20R WCI  26          
$$

TNZ008-025-027-028-033-062-065-066-181000-
NORTH MIDDLE TENNESSEE
  
CITY           SKY/WX    TMP DP  RH WIND       PRES   REMARKS
NASHVILLE      CLOUDY    39  33  79 NW13      30.10R WCI  31          
CLARKSVILLE    CLOUDY    34  25  69 NW10      30.13R WCI  26          
SMYRNA         MOCLDY    39  36  89 W3        30.11R                  
CROSSVILLE     CLOUDY    37  35  92 W9        30.02R FOG     WCI  30  
$$

TNZ061-075-076-078-094-096-097-181000-
SOUTH MIDDLE TENNESSEE
  
CITY           SKY/WX    TMP DP  RH WIND       PRES   REMARKS
$$

TNZ017-018-042-046-047-181000-
NORTHEAST TENNESSEE
  
CITY           SKY/WX    TMP DP  RH WIND       PRES   REMARKS
TRI CITIES     CLOUDY    50  48  93 W17G24    29.89R                  
$$

TNZ012-013-036-069-073-074-181000-
CENTRAL EAST TENNESSEE
  
CITY           SKY/WX    TMP DP  RH WIND       PRES   REMARKS
KNOXVILLE      CLOUDY    46  42  86 W14G31    29.99R                  
OAK RIDGE      FAIR      45  42  89 W6        30.02R                  
$$

TNZ083-085-099-181000-
SOUTHEAST TENNESSEE
  
CITY           SKY/WX    TMP DP  RH WIND       PRES   REMARKS
CHATTANOOGA    FAIR      47  45  93 CALM      30.03S                  
$$

SKY/WX REPORTED AS FAIR MEANS FEW OR NO CLOUDS BELOW
12 THOUSAND FEET.